Year,Month,Day,Hour,Minute,Value (Times are PST for temperature in C)
2020,08,09,00,00,11.70
2020,08,09,00,01,11.70
2020,08,09,00,02,11.70
2020,08,09,00,03,11.70
2020,08,09,00,04,11.70
2020,08,09,00,05,11.60
2020,08,09,00,06,11.60
2020,08,09,00,07,11.60
2020,08,09,00,08,11.60
2020,08,09,00,09,11.60
2020,08,09,00,10,11.60
2020,08,09,00,11,11.60
2020,08,09,00,12,11.60
2020,08,09,00,13,11.50
2020,08,09,00,14,11.50
2020,08,09,00,15,11.50
2020,08,09,00,16,11.40
2020,08,09,00,17,11.40
2020,08,09,00,18,11.40
2020,08,09,00,19,11.40
2020,08,09,00,20,11.40
2020,08,09,00,21,11.40
2020,08,09,00,22,11.40
2020,08,09,00,23,11.40
2020,08,09,00,24,11.40
2020,08,09,00,25,11.40
2020,08,09,00,26,11.40
2020,08,09,00,27,11.30
2020,08,09,00,28,11.30
2020,08,09,00,29,11.30
2020,08,09,00,30,11.30
2020,08,09,00,31,11.30
2020,08,09,00,32,11.30
2020,08,09,00,33,11.30
2020,08,09,00,34,11.30
2020,08,09,00,35,11.30
2020,08,09,00,36,11.30
2020,08,09,00,37,11.30
2020,08,09,00,38,11.30
2020,08,09,00,39,11.30
2020,08,09,00,40,11.30
2020,08,09,00,41,11.30
2020,08,09,00,42,11.40
2020,08,09,00,43,11.30
2020,08,09,00,44,11.30
2020,08,09,00,45,11.30
2020,08,09,00,46,11.30
2020,08,09,00,47,11.20
2020,08,09,00,48,11.20
2020,08,09,00,49,11.20
2020,08,09,00,50,11.20
2020,08,09,00,51,11.20
2020,08,09,00,52,11.20
2020,08,09,00,53,11.20
2020,08,09,00,54,11.10
2020,08,09,00,55,11.10
2020,08,09,00,56,11.10
2020,08,09,00,57,11.10
2020,08,09,00,58,11.10
2020,08,09,00,59,11.10
2020,08,09,01,00,11.10
2020,08,09,01,01,11.10
2020,08,09,01,02,11.10
2020,08,09,01,03,11.10
2020,08,09,01,04,11.10
2020,08,09,01,05,11.10
2020,08,09,01,06,11.10
2020,08,09,01,07,11.00
2020,08,09,01,08,11.00
2020,08,09,01,09,11.00
2020,08,09,01,10,10.90
2020,08,09,01,11,10.90
2020,08,09,01,12,10.90
2020,08,09,01,13,10.90
2020,08,09,01,14,10.80
2020,08,09,01,15,10.80
2020,08,09,01,16,10.80
2020,08,09,01,17,10.80
2020,08,09,01,18,10.80
2020,08,09,01,19,10.80
2020,08,09,01,20,10.80
2020,08,09,01,21,10.80
2020,08,09,01,22,10.80
2020,08,09,01,23,10.80
2020,08,09,01,24,10.80
2020,08,09,01,25,10.80
2020,08,09,01,26,10.80
2020,08,09,01,27,10.80
2020,08,09,01,28,10.80
2020,08,09,01,29,10.80
2020,08,09,01,30,10.80
2020,08,09,01,31,10.80
2020,08,09,01,32,10.90
2020,08,09,01,33,10.90
2020,08,09,01,34,10.90
2020,08,09,01,35,10.90
2020,08,09,01,36,10.80
2020,08,09,01,37,10.80
2020,08,09,01,38,10.80
2020,08,09,01,39,10.80
2020,08,09,01,40,10.80
2020,08,09,01,41,10.80
2020,08,09,01,42,10.80
2020,08,09,01,43,10.70
2020,08,09,01,44,10.80
2020,08,09,01,45,10.80
2020,08,09,01,46,10.80
2020,08,09,01,47,10.80
2020,08,09,01,48,10.80
2020,08,09,01,49,10.80
2020,08,09,01,50,10.80
2020,08,09,01,51,10.80
2020,08,09,01,52,10.80
2020,08,09,01,53,10.90
2020,08,09,01,54,10.90
2020,08,09,01,55,10.90
2020,08,09,01,56,10.90
2020,08,09,01,57,10.90
2020,08,09,01,58,11.00
2020,08,09,01,59,11.00
2020,08,09,02,00,11.00
2020,08,09,02,01,11.00
2020,08,09,02,02,11.00
2020,08,09,02,03,11.00
2020,08,09,02,04,11.00
2020,08,09,02,05,11.00
2020,08,09,02,06,11.00
2020,08,09,02,07,11.00
2020,08,09,02,08,11.00
2020,08,09,02,09,11.00
2020,08,09,02,10,11.00
2020,08,09,02,11,11.10
2020,08,09,02,12,11.10
2020,08,09,02,13,11.20
2020,08,09,02,14,11.20
2020,08,09,02,15,11.20
2020,08,09,02,16,11.20
2020,08,09,02,17,11.30
2020,08,09,02,18,11.30
2020,08,09,02,19,11.30
2020,08,09,02,20,11.30
2020,08,09,02,21,11.30
2020,08,09,02,22,11.40
2020,08,09,02,23,11.40
2020,08,09,02,24,11.40
2020,08,09,02,25,11.40
2020,08,09,02,26,11.50
2020,08,09,02,27,11.50
2020,08,09,02,28,11.50
2020,08,09,02,29,11.50
2020,08,09,02,30,11.60
2020,08,09,02,31,11.60
2020,08,09,02,32,11.60
2020,08,09,02,33,11.60
2020,08,09,02,34,11.60
2020,08,09,02,35,11.60
2020,08,09,02,36,11.60
2020,08,09,02,37,11.70
2020,08,09,02,38,11.70
2020,08,09,02,39,11.70
2020,08,09,02,40,11.70
2020,08,09,02,41,11.70
2020,08,09,02,42,11.70
2020,08,09,02,43,11.70
2020,08,09,02,44,11.70
2020,08,09,02,45,11.70
2020,08,09,02,46,11.70
2020,08,09,02,47,11.70
2020,08,09,02,48,11.70
2020,08,09,02,49,11.70
2020,08,09,02,50,11.70
2020,08,09,02,51,11.60
2020,08,09,02,52,11.60
2020,08,09,02,53,11.60
2020,08,09,02,54,11.60
2020,08,09,02,55,11.60
2020,08,09,02,56,11.60
2020,08,09,02,57,11.60
2020,08,09,02,58,11.60
2020,08,09,02,59,11.70
2020,08,09,03,00,11.70
2020,08,09,03,01,11.70
2020,08,09,03,02,11.70
2020,08,09,03,03,11.70
2020,08,09,03,04,11.70
2020,08,09,03,05,11.70
2020,08,09,03,06,11.60
2020,08,09,03,07,11.60
2020,08,09,03,08,11.60
2020,08,09,03,09,11.60
2020,08,09,03,10,11.50
2020,08,09,03,11,11.50
2020,08,09,03,12,11.40
2020,08,09,03,13,11.40
2020,08,09,03,14,11.40
2020,08,09,03,15,11.40
2020,08,09,03,16,11.40
2020,08,09,03,17,11.50
2020,08,09,03,18,11.50
2020,08,09,03,19,11.50
2020,08,09,03,20,11.40
2020,08,09,03,21,11.40
2020,08,09,03,22,11.30
2020,08,09,03,23,11.30
2020,08,09,03,24,11.20
2020,08,09,03,25,11.10
2020,08,09,03,26,11.00
2020,08,09,03,27,10.90
2020,08,09,03,28,10.80
2020,08,09,03,29,10.80
2020,08,09,03,30,10.80
2020,08,09,03,31,10.80
2020,08,09,03,32,10.80
2020,08,09,03,33,10.70
2020,08,09,03,34,10.70
2020,08,09,03,35,10.70
2020,08,09,03,36,10.70
2020,08,09,03,37,10.70
2020,08,09,03,38,10.70
2020,08,09,03,39,10.60
2020,08,09,03,40,10.60
2020,08,09,03,41,10.60
2020,08,09,03,42,10.60
2020,08,09,03,43,10.50
2020,08,09,03,44,10.50
2020,08,09,03,45,10.50
2020,08,09,03,46,10.40
2020,08,09,03,47,10.40
2020,08,09,03,48,10.40
2020,08,09,03,49,10.40
2020,08,09,03,50,10.40
2020,08,09,03,51,10.40
2020,08,09,03,52,10.40
2020,08,09,03,53,10.40
2020,08,09,03,54,10.40
2020,08,09,03,55,10.40
2020,08,09,03,56,10.40
2020,08,09,03,57,10.40
2020,08,09,03,58,10.40
2020,08,09,03,59,10.40
2020,08,09,04,00,10.40
2020,08,09,04,01,10.40
2020,08,09,04,02,10.50
2020,08,09,04,03,10.50
2020,08,09,04,04,10.50
2020,08,09,04,05,10.60
2020,08,09,04,06,10.60
2020,08,09,04,07,10.60
2020,08,09,04,08,10.70
2020,08,09,04,09,10.70
2020,08,09,04,10,10.80
2020,08,09,04,11,10.80
2020,08,09,04,12,10.80
2020,08,09,04,13,10.80
2020,08,09,04,14,10.90
2020,08,09,04,15,10.90
2020,08,09,04,16,10.90
2020,08,09,04,17,10.90
2020,08,09,04,18,10.90
2020,08,09,04,19,10.90
2020,08,09,04,20,10.90
2020,08,09,04,21,10.90
2020,08,09,04,22,10.90
2020,08,09,04,23,10.90
2020,08,09,04,24,10.90
2020,08,09,04,25,10.90
2020,08,09,04,26,10.90
2020,08,09,04,27,10.90
2020,08,09,04,28,10.90
2020,08,09,04,29,10.90
2020,08,09,04,30,10.90
2020,08,09,04,31,10.90
2020,08,09,04,32,10.90
2020,08,09,04,33,10.90
2020,08,09,04,34,10.90
2020,08,09,04,35,10.90
2020,08,09,04,36,10.90
2020,08,09,04,37,10.90
2020,08,09,04,38,10.90
2020,08,09,04,39,10.90
2020,08,09,04,40,10.90
2020,08,09,04,41,10.90
2020,08,09,04,42,11.00
2020,08,09,04,43,11.00
2020,08,09,04,44,11.00
2020,08,09,04,45,11.00
2020,08,09,04,46,11.10
2020,08,09,04,47,11.10
2020,08,09,04,48,11.10
2020,08,09,04,49,11.10
2020,08,09,04,50,11.10
2020,08,09,04,51,11.10
2020,08,09,04,52,11.10
2020,08,09,04,53,11.10
2020,08,09,04,54,11.20
2020,08,09,04,55,11.20
2020,08,09,04,56,11.20
2020,08,09,04,57,11.20
2020,08,09,04,58,11.20
2020,08,09,04,59,11.20
2020,08,09,05,00,11.20
2020,08,09,05,01,11.20
2020,08,09,05,02,11.20
2020,08,09,05,03,11.20
2020,08,09,05,04,11.20
2020,08,09,05,05,11.20
2020,08,09,05,06,11.20
2020,08,09,05,07,11.20
2020,08,09,05,08,11.20
2020,08,09,05,09,11.20
2020,08,09,05,10,11.20
2020,08,09,05,11,11.20
2020,08,09,05,12,11.20
2020,08,09,05,13,11.20
2020,08,09,05,14,11.20
2020,08,09,05,15,11.20
2020,08,09,05,16,11.20
2020,08,09,05,17,11.20
2020,08,09,05,18,11.20
2020,08,09,05,19,11.20
2020,08,09,05,20,11.20
2020,08,09,05,21,11.20
2020,08,09,05,22,11.20
2020,08,09,05,23,11.10
2020,08,09,05,24,11.10
2020,08,09,05,25,11.10
2020,08,09,05,26,11.10
2020,08,09,05,27,11.10
2020,08,09,05,28,11.10
2020,08,09,05,29,11.10
2020,08,09,05,30,11.00
2020,08,09,05,31,10.90
2020,08,09,05,32,10.90
2020,08,09,05,33,10.80
2020,08,09,05,34,10.80
2020,08,09,05,35,10.80
2020,08,09,05,36,10.70
2020,08,09,05,37,10.70
2020,08,09,05,38,10.70
2020,08,09,05,39,10.70
2020,08,09,05,40,10.70
2020,08,09,05,41,10.60
2020,08,09,05,42,10.60
2020,08,09,05,43,10.60
2020,08,09,05,44,10.50
2020,08,09,05,45,10.50
2020,08,09,05,46,10.40
2020,08,09,05,47,10.40
2020,08,09,05,48,10.30
2020,08,09,05,49,10.30
2020,08,09,05,50,10.30
2020,08,09,05,51,10.30
2020,08,09,05,52,10.40
2020,08,09,05,53,10.40
2020,08,09,05,54,10.40
2020,08,09,05,55,10.40
2020,08,09,05,56,10.40
2020,08,09,05,57,10.40
2020,08,09,05,58,10.40
2020,08,09,05,59,10.40
2020,08,09,06,00,10.40
2020,08,09,06,01,10.40
2020,08,09,06,02,10.40
2020,08,09,06,03,10.40
2020,08,09,06,04,10.40
2020,08,09,06,05,10.40
2020,08,09,06,06,10.30
2020,08,09,06,07,10.30
2020,08,09,06,08,10.30
2020,08,09,06,09,10.20
2020,08,09,06,10,10.10
2020,08,09,06,11,10.10
2020,08,09,06,12,10.00
2020,08,09,06,13,10.00
2020,08,09,06,14,9.90
2020,08,09,06,15,9.90
2020,08,09,06,16,9.90
2020,08,09,06,17,9.90
2020,08,09,06,18,9.90
2020,08,09,06,19,9.90
2020,08,09,06,20,9.90
2020,08,09,06,21,9.90
2020,08,09,06,22,9.90
2020,08,09,06,23,9.90
2020,08,09,06,24,9.90
2020,08,09,06,25,9.90
2020,08,09,06,26,9.90
2020,08,09,06,27,9.80
2020,08,09,06,28,9.80
2020,08,09,06,29,9.80
2020,08,09,06,30,9.80
2020,08,09,06,31,9.70
2020,08,09,06,32,9.70
2020,08,09,06,33,9.70
2020,08,09,06,34,9.70
2020,08,09,06,35,9.60
2020,08,09,06,36,9.60
2020,08,09,06,37,9.60
2020,08,09,06,38,9.60
2020,08,09,06,39,9.60
2020,08,09,06,40,9.60
2020,08,09,06,41,9.60
2020,08,09,06,42,9.60
2020,08,09,06,43,9.50
2020,08,09,06,44,9.50
2020,08,09,06,45,9.50
2020,08,09,06,46,9.60
2020,08,09,06,47,9.60
2020,08,09,06,48,9.60
2020,08,09,06,49,9.60
2020,08,09,06,50,9.60
2020,08,09,06,51,9.60
2020,08,09,06,52,9.70
2020,08,09,06,53,9.70
2020,08,09,06,54,9.70
2020,08,09,06,55,9.70
2020,08,09,06,56,9.80
2020,08,09,06,57,9.80
2020,08,09,06,58,9.80
2020,08,09,06,59,9.80
2020,08,09,07,00,9.80
2020,08,09,07,01,9.90
2020,08,09,07,02,9.90
2020,08,09,07,03,9.90
2020,08,09,07,04,9.90
2020,08,09,07,05,10.00
2020,08,09,07,06,10.00
2020,08,09,07,07,10.00
2020,08,09,07,08,10.10
2020,08,09,07,09,10.10
2020,08,09,07,10,10.20
2020,08,09,07,11,10.20
2020,08,09,07,12,10.30
2020,08,09,07,13,10.30
2020,08,09,07,14,10.40
2020,08,09,07,15,10.40
2020,08,09,07,16,10.50
2020,08,09,07,17,10.60
2020,08,09,07,18,10.60
2020,08,09,07,19,10.70
2020,08,09,07,20,10.70
2020,08,09,07,21,10.80
2020,08,09,07,22,10.80
2020,08,09,07,23,10.90
2020,08,09,07,24,10.90
2020,08,09,07,25,11.00
2020,08,09,07,26,11.10
2020,08,09,07,27,11.10
2020,08,09,07,28,11.20
2020,08,09,07,29,11.30
2020,08,09,07,30,11.40
2020,08,09,07,31,11.50
2020,08,09,07,32,11.50
2020,08,09,07,33,11.60
2020,08,09,07,34,11.60
2020,08,09,07,35,11.70
2020,08,09,07,36,11.80
2020,08,09,07,37,11.90
2020,08,09,07,38,11.90
2020,08,09,07,39,12.00
2020,08,09,07,40,12.10
2020,08,09,07,41,12.10
2020,08,09,07,42,12.20
2020,08,09,07,43,12.30
2020,08,09,07,44,12.30
2020,08,09,07,45,12.40
2020,08,09,07,46,12.50
2020,08,09,07,47,12.60
2020,08,09,07,48,12.70
2020,08,09,07,49,12.80
2020,08,09,07,50,12.90
2020,08,09,07,51,13.00
2020,08,09,07,52,13.00
2020,08,09,07,53,13.10
2020,08,09,07,54,13.20
2020,08,09,07,55,13.30
2020,08,09,07,56,13.40
2020,08,09,07,57,13.50
2020,08,09,07,58,13.60
2020,08,09,07,59,13.70
2020,08,09,08,00,13.80
2020,08,09,08,01,13.90
2020,08,09,08,02,14.00
2020,08,09,08,03,14.10
2020,08,09,08,04,14.10
2020,08,09,08,05,14.20
2020,08,09,08,06,14.30
2020,08,09,08,07,14.40
2020,08,09,08,08,14.60
2020,08,09,08,09,14.70
2020,08,09,08,10,14.70
2020,08,09,08,11,14.90
2020,08,09,08,12,15.00
2020,08,09,08,13,15.10
2020,08,09,08,14,15.20
2020,08,09,08,15,15.30
2020,08,09,08,16,15.30
2020,08,09,08,17,15.40
2020,08,09,08,18,15.50
2020,08,09,08,19,15.60
2020,08,09,08,20,15.70
2020,08,09,08,21,15.80
2020,08,09,08,22,15.90
2020,08,09,08,23,16.00
2020,08,09,08,24,16.10
2020,08,09,08,25,16.20
2020,08,09,08,26,16.20
2020,08,09,08,27,16.30
2020,08,09,08,28,16.30
2020,08,09,08,29,16.40
2020,08,09,08,30,16.50
2020,08,09,08,31,16.60
2020,08,09,08,32,16.70
2020,08,09,08,33,16.70
2020,08,09,08,34,16.80
2020,08,09,08,35,16.80
2020,08,09,08,36,16.90
2020,08,09,08,37,16.90
2020,08,09,08,38,17.00
2020,08,09,08,39,17.10
2020,08,09,08,40,17.20
2020,08,09,08,41,17.20
2020,08,09,08,42,17.20
2020,08,09,08,43,17.30
2020,08,09,08,44,17.30
2020,08,09,08,45,17.30
2020,08,09,08,46,17.30
2020,08,09,08,47,17.30
2020,08,09,08,48,17.30
2020,08,09,08,49,17.30
2020,08,09,08,50,17.30
2020,08,09,08,51,17.30
2020,08,09,08,52,17.20
2020,08,09,08,53,17.20
2020,08,09,08,54,17.20
2020,08,09,08,55,17.20
2020,08,09,08,56,17.20
2020,08,09,08,57,17.20
2020,08,09,08,58,17.20
2020,08,09,08,59,17.20
2020,08,09,09,00,17.10
2020,08,09,09,01,17.10
2020,08,09,09,02,17.00
2020,08,09,09,03,17.00
2020,08,09,09,04,17.00
2020,08,09,09,05,17.00
2020,08,09,09,06,16.90
2020,08,09,09,07,16.90
2020,08,09,09,08,16.80
2020,08,09,09,09,16.80
2020,08,09,09,10,16.80
2020,08,09,09,11,16.80
2020,08,09,09,12,16.80
2020,08,09,09,13,16.80
2020,08,09,09,14,16.80
2020,08,09,09,15,16.80
2020,08,09,09,16,16.90
2020,08,09,09,17,16.90
2020,08,09,09,18,16.90
2020,08,09,09,19,17.00
2020,08,09,09,20,17.00
2020,08,09,09,21,17.10
2020,08,09,09,22,17.20
2020,08,09,09,23,17.20
2020,08,09,09,24,17.20
2020,08,09,09,25,17.20
2020,08,09,09,26,17.20
2020,08,09,09,27,17.20
2020,08,09,09,28,17.20
2020,08,09,09,29,17.20
2020,08,09,09,30,17.20
2020,08,09,09,31,17.20
2020,08,09,09,32,17.20
2020,08,09,09,33,17.20
2020,08,09,09,34,17.30
2020,08,09,09,35,17.30
2020,08,09,09,36,17.30
2020,08,09,09,37,17.40
2020,08,09,09,38,17.40
2020,08,09,09,39,17.40
2020,08,09,09,40,17.40
2020,08,09,09,41,17.40
2020,08,09,09,42,17.40
2020,08,09,09,43,17.40
2020,08,09,09,44,17.40
2020,08,09,09,45,17.40
2020,08,09,09,46,17.30
2020,08,09,09,47,17.30
2020,08,09,09,48,17.40
2020,08,09,09,49,17.40
2020,08,09,09,50,17.40
2020,08,09,09,51,17.50
2020,08,09,09,52,17.60
2020,08,09,09,53,17.60
2020,08,09,09,54,17.80
2020,08,09,09,55,17.90
2020,08,09,09,56,17.90
2020,08,09,09,57,17.90
2020,08,09,09,58,17.90
2020,08,09,09,59,17.80
2020,08,09,10,00,17.80
2020,08,09,10,01,17.80
2020,08,09,10,02,17.80
2020,08,09,10,03,17.80
2020,08,09,10,04,17.80
2020,08,09,10,05,17.90
2020,08,09,10,06,18.00
2020,08,09,10,07,18.00
2020,08,09,10,08,18.10
2020,08,09,10,09,18.20
2020,08,09,10,10,18.20
2020,08,09,10,11,18.30
2020,08,09,10,12,18.30
2020,08,09,10,13,18.40
2020,08,09,10,14,18.40
2020,08,09,10,15,18.40
2020,08,09,10,16,18.50
2020,08,09,10,17,18.50
2020,08,09,10,18,18.40
2020,08,09,10,19,18.40
2020,08,09,10,20,18.30
2020,08,09,10,21,18.30
2020,08,09,10,22,18.30
2020,08,09,10,23,18.30
2020,08,09,10,24,18.30
2020,08,09,10,25,18.30
2020,08,09,10,26,18.20
2020,08,09,10,27,18.20
2020,08,09,10,28,18.20
2020,08,09,10,29,18.20
2020,08,09,10,30,18.10
2020,08,09,10,31,18.10
2020,08,09,10,32,18.10
2020,08,09,10,33,18.10
2020,08,09,10,34,18.10
2020,08,09,10,35,18.10
2020,08,09,10,36,18.20
2020,08,09,10,37,18.20
2020,08,09,10,38,18.20
2020,08,09,10,39,18.30
2020,08,09,10,40,18.40
2020,08,09,10,41,18.50
2020,08,09,10,42,18.60
2020,08,09,10,43,18.60
2020,08,09,10,44,18.60
2020,08,09,10,45,18.60
2020,08,09,10,46,18.60
2020,08,09,10,47,18.60
2020,08,09,10,48,18.60
2020,08,09,10,49,18.70
2020,08,09,10,50,18.70
2020,08,09,10,51,18.80
2020,08,09,10,52,18.80
2020,08,09,10,53,18.90
2020,08,09,10,54,18.90
2020,08,09,10,55,18.80
2020,08,09,10,56,18.70
2020,08,09,10,57,18.60
2020,08,09,10,58,18.50
2020,08,09,10,59,18.50
2020,08,09,11,00,18.40
2020,08,09,11,01,18.40
2020,08,09,11,02,18.50
2020,08,09,11,03,18.50
2020,08,09,11,04,18.50
2020,08,09,11,05,18.50
2020,08,09,11,06,18.50
2020,08,09,11,07,18.50
2020,08,09,11,08,18.60
2020,08,09,11,09,18.70
2020,08,09,11,10,18.70
2020,08,09,11,11,18.70
2020,08,09,11,12,18.70
2020,08,09,11,13,18.70
2020,08,09,11,14,18.70
2020,08,09,11,15,18.70
2020,08,09,11,16,18.60
2020,08,09,11,17,18.60
2020,08,09,11,18,18.60
2020,08,09,11,19,18.60
2020,08,09,11,20,18.60
2020,08,09,11,21,18.60
2020,08,09,11,22,18.60
2020,08,09,11,23,18.70
2020,08,09,11,24,18.70
2020,08,09,11,25,18.70
2020,08,09,11,26,18.80
2020,08,09,11,27,18.80
2020,08,09,11,28,18.90
2020,08,09,11,29,19.00
2020,08,09,11,30,19.00
2020,08,09,11,31,19.00
2020,08,09,11,32,18.90
2020,08,09,11,33,18.90
2020,08,09,11,34,18.80
2020,08,09,11,35,18.80
2020,08,09,11,36,18.80
2020,08,09,11,37,18.90
2020,08,09,11,38,19.00
2020,08,09,11,39,19.00
2020,08,09,11,40,19.10
2020,08,09,11,41,19.10
2020,08,09,11,42,19.20
2020,08,09,11,43,19.20
2020,08,09,11,44,19.30
2020,08,09,11,45,19.30
2020,08,09,11,46,19.40
2020,08,09,11,47,19.40
2020,08,09,11,48,19.50
2020,08,09,11,49,19.60
2020,08,09,11,50,19.70
2020,08,09,11,51,19.80
2020,08,09,11,52,19.80
2020,08,09,11,53,19.80
2020,08,09,11,54,19.80
2020,08,09,11,55,19.70
2020,08,09,11,56,19.60
2020,08,09,11,57,19.50
2020,08,09,11,58,19.40
2020,08,09,11,59,19.40
2020,08,09,12,00,19.40
2020,08,09,12,01,19.40
2020,08,09,12,02,19.40
2020,08,09,12,03,19.40
2020,08,09,12,04,19.40
2020,08,09,12,05,19.40
2020,08,09,12,06,19.30
2020,08,09,12,07,19.20
2020,08,09,12,08,19.20
2020,08,09,12,09,19.20
2020,08,09,12,10,19.10
2020,08,09,12,11,19.00
2020,08,09,12,12,19.00
2020,08,09,12,13,18.90
2020,08,09,12,14,18.90
2020,08,09,12,15,18.90
2020,08,09,12,16,18.90
2020,08,09,12,17,18.90
2020,08,09,12,18,19.00
2020,08,09,12,19,19.10
2020,08,09,12,20,19.10
2020,08,09,12,21,19.10
2020,08,09,12,22,19.10
2020,08,09,12,23,19.10
2020,08,09,12,24,19.20
2020,08,09,12,25,19.20
2020,08,09,12,26,19.20
2020,08,09,12,27,19.30
2020,08,09,12,28,19.30
2020,08,09,12,29,19.40
2020,08,09,12,30,19.40
2020,08,09,12,31,19.50
2020,08,09,12,32,19.50
2020,08,09,12,33,19.40
2020,08,09,12,34,19.30
2020,08,09,12,35,19.30
2020,08,09,12,36,19.30
2020,08,09,12,37,19.30
2020,08,09,12,38,19.30
2020,08,09,12,39,19.30
2020,08,09,12,40,19.30
2020,08,09,12,41,19.30
2020,08,09,12,42,19.30
2020,08,09,12,43,19.30
2020,08,09,12,44,19.30
2020,08,09,12,45,19.40
2020,08,09,12,46,19.50
2020,08,09,12,47,19.60
2020,08,09,12,48,19.70
2020,08,09,12,49,19.80
2020,08,09,12,50,19.80
2020,08,09,12,51,19.90
2020,08,09,12,52,19.90
2020,08,09,12,53,20.00
2020,08,09,12,54,20.00
2020,08,09,12,55,20.10
2020,08,09,12,56,20.10
2020,08,09,12,57,20.10
2020,08,09,12,58,20.20
2020,08,09,12,59,20.20
2020,08,09,13,00,20.20
2020,08,09,13,01,20.20
2020,08,09,13,02,20.20
2020,08,09,13,03,20.20
2020,08,09,13,04,20.20
2020,08,09,13,05,20.20
2020,08,09,13,06,20.30
2020,08,09,13,07,20.30
2020,08,09,13,08,20.40
2020,08,09,13,09,20.40
2020,08,09,13,10,20.40
2020,08,09,13,11,20.50
2020,08,09,13,12,20.40
2020,08,09,13,13,20.40
2020,08,09,13,14,20.40
2020,08,09,13,15,20.30
2020,08,09,13,16,20.30
2020,08,09,13,17,20.30
2020,08,09,13,18,20.40
2020,08,09,13,19,20.40
2020,08,09,13,20,20.40
2020,08,09,13,21,20.40
2020,08,09,13,22,20.50
2020,08,09,13,23,20.50
2020,08,09,13,24,20.60
2020,08,09,13,25,20.60
2020,08,09,13,26,20.70
2020,08,09,13,27,20.70
2020,08,09,13,28,20.70
2020,08,09,13,29,20.80
2020,08,09,13,30,20.80
2020,08,09,13,31,20.80
2020,08,09,13,32,20.80
2020,08,09,13,33,20.80
2020,08,09,13,34,20.80
2020,08,09,13,35,20.80
2020,08,09,13,36,20.80
2020,08,09,13,37,20.80
2020,08,09,13,38,20.80
2020,08,09,13,39,20.80
2020,08,09,13,40,20.80
2020,08,09,13,41,20.80
2020,08,09,13,42,20.70
2020,08,09,13,43,20.50
2020,08,09,13,44,20.40
2020,08,09,13,45,20.20
2020,08,09,13,46,20.20
2020,08,09,13,47,20.10
2020,08,09,13,48,20.10
2020,08,09,13,49,20.00
2020,08,09,13,50,20.00
2020,08,09,13,51,19.90
2020,08,09,13,52,19.90
2020,08,09,13,53,19.80
2020,08,09,13,54,19.80
2020,08,09,13,55,19.80
2020,08,09,13,56,19.80
2020,08,09,13,57,19.90
2020,08,09,13,58,20.00
2020,08,09,13,59,20.10
2020,08,09,14,00,20.20
2020,08,09,14,01,20.20
2020,08,09,14,02,20.20
2020,08,09,14,03,20.30
2020,08,09,14,04,20.40
2020,08,09,14,05,20.50
2020,08,09,14,06,20.60
2020,08,09,14,07,20.60
2020,08,09,14,08,20.70
2020,08,09,14,09,20.80
2020,08,09,14,10,20.90
2020,08,09,14,11,21.00
2020,08,09,14,12,21.10
2020,08,09,14,13,21.30
2020,08,09,14,14,21.30
2020,08,09,14,15,21.30
2020,08,09,14,16,21.30
2020,08,09,14,17,21.30
2020,08,09,14,18,21.30
2020,08,09,14,19,21.20
2020,08,09,14,20,21.10
2020,08,09,14,21,21.00
2020,08,09,14,22,20.90
2020,08,09,14,23,20.80
2020,08,09,14,24,20.80
2020,08,09,14,25,20.80
2020,08,09,14,26,20.80
2020,08,09,14,27,20.70
2020,08,09,14,28,20.70
2020,08,09,14,29,20.70
2020,08,09,14,30,20.60
2020,08,09,14,31,20.60
2020,08,09,14,32,20.60
2020,08,09,14,33,20.60
2020,08,09,14,34,20.60
2020,08,09,14,35,20.60
2020,08,09,14,36,20.60
2020,08,09,14,37,20.60
2020,08,09,14,38,20.70
2020,08,09,14,39,20.70
2020,08,09,14,40,20.80
2020,08,09,14,41,20.90
2020,08,09,14,42,20.90
2020,08,09,14,43,20.90
2020,08,09,14,44,20.90
2020,08,09,14,45,20.80
2020,08,09,14,46,20.80
2020,08,09,14,47,20.70
2020,08,09,14,48,20.70
2020,08,09,14,49,20.60
2020,08,09,14,50,20.60
2020,08,09,14,51,20.60
2020,08,09,14,52,20.60
2020,08,09,14,53,20.70
2020,08,09,14,54,20.70
2020,08,09,14,55,20.70
2020,08,09,14,56,20.70
2020,08,09,14,57,20.80
2020,08,09,14,58,20.90
2020,08,09,14,59,21.00
2020,08,09,15,00,21.10
2020,08,09,15,01,21.30
2020,08,09,15,02,21.40
2020,08,09,15,03,21.60
2020,08,09,15,04,21.70
2020,08,09,15,05,21.70
2020,08,09,15,06,21.80
2020,08,09,15,07,21.80
2020,08,09,15,08,21.70
2020,08,09,15,09,21.60
2020,08,09,15,10,21.60
2020,08,09,15,11,21.60
2020,08,09,15,12,21.60
2020,08,09,15,13,21.60
2020,08,09,15,14,21.60
2020,08,09,15,15,21.60
2020,08,09,15,16,21.60
2020,08,09,15,17,21.60
2020,08,09,15,18,21.60
2020,08,09,15,19,21.60
2020,08,09,15,20,21.60
2020,08,09,15,21,21.60
2020,08,09,15,22,21.50
2020,08,09,15,23,21.50
2020,08,09,15,24,21.40
2020,08,09,15,25,21.30
2020,08,09,15,26,21.30
2020,08,09,15,27,21.30
2020,08,09,15,28,21.30
2020,08,09,15,29,21.40
2020,08,09,15,30,21.50
2020,08,09,15,31,21.50
2020,08,09,15,32,21.40
2020,08,09,15,33,21.40
2020,08,09,15,34,21.50
2020,08,09,15,35,21.50
2020,08,09,15,36,21.60
2020,08,09,15,37,21.50
2020,08,09,15,38,21.40
2020,08,09,15,39,21.30
2020,08,09,15,40,21.30
2020,08,09,15,41,21.30
2020,08,09,15,42,21.30
2020,08,09,15,43,21.40
2020,08,09,15,44,21.40
2020,08,09,15,45,21.40
2020,08,09,15,46,21.50
2020,08,09,15,47,21.50
2020,08,09,15,48,21.60
2020,08,09,15,49,21.60
2020,08,09,15,50,21.70
2020,08,09,15,51,21.70
2020,08,09,15,52,21.80
2020,08,09,15,53,21.80
2020,08,09,15,54,21.70
2020,08,09,15,55,21.70
2020,08,09,15,56,21.80
2020,08,09,15,57,21.80
2020,08,09,15,58,21.90
2020,08,09,15,59,21.90
2020,08,09,16,00,22.10
2020,08,09,16,01,22.10
2020,08,09,16,02,22.20
2020,08,09,16,03,22.20
2020,08,09,16,04,22.30
2020,08,09,16,05,22.30
2020,08,09,16,06,22.30
2020,08,09,16,07,22.30
2020,08,09,16,08,22.20
2020,08,09,16,09,22.20
2020,08,09,16,10,22.20
2020,08,09,16,11,22.20
2020,08,09,16,12,22.20
2020,08,09,16,13,22.20
2020,08,09,16,14,22.20
2020,08,09,16,15,22.30
2020,08,09,16,16,22.40
2020,08,09,16,17,22.40
2020,08,09,16,18,22.40
2020,08,09,16,19,22.50
2020,08,09,16,20,22.50
2020,08,09,16,21,22.60
2020,08,09,16,22,22.60
2020,08,09,16,23,22.60
2020,08,09,16,24,22.60
2020,08,09,16,25,22.60
2020,08,09,16,26,22.70
2020,08,09,16,27,22.70
2020,08,09,16,28,22.70
2020,08,09,16,29,22.80
2020,08,09,16,30,22.80
2020,08,09,16,31,22.90
2020,08,09,16,32,23.00
2020,08,09,16,33,23.00
2020,08,09,16,34,23.00
2020,08,09,16,35,23.00
2020,08,09,16,36,22.90
2020,08,09,16,37,22.80
2020,08,09,16,38,22.70
2020,08,09,16,39,22.60
2020,08,09,16,40,22.40
2020,08,09,16,41,22.30
2020,08,09,16,42,22.30
2020,08,09,16,43,22.20
2020,08,09,16,44,22.20
2020,08,09,16,45,22.20
2020,08,09,16,46,22.30
2020,08,09,16,47,22.40
2020,08,09,16,48,22.50
2020,08,09,16,49,22.60
2020,08,09,16,50,22.70
2020,08,09,16,51,22.70
2020,08,09,16,52,22.70
2020,08,09,16,53,22.80
2020,08,09,16,54,23.00
2020,08,09,16,55,23.00
2020,08,09,16,56,23.00
2020,08,09,16,57,22.90
2020,08,09,16,58,22.80
2020,08,09,16,59,22.80
2020,08,09,17,00,22.80
2020,08,09,17,01,22.90
2020,08,09,17,02,22.90
2020,08,09,17,03,22.90
2020,08,09,17,04,23.00
2020,08,09,17,05,23.00
2020,08,09,17,06,23.10
2020,08,09,17,07,23.10
2020,08,09,17,08,23.20
2020,08,09,17,09,23.20
2020,08,09,17,10,23.30
2020,08,09,17,11,23.30
2020,08,09,17,12,23.40
2020,08,09,17,13,23.40
2020,08,09,17,14,23.50
2020,08,09,17,15,23.60
2020,08,09,17,16,23.60
2020,08,09,17,17,23.60
2020,08,09,17,18,23.60
2020,08,09,17,19,23.60
2020,08,09,17,20,23.60
2020,08,09,17,21,23.50